User: anonymous   Login
Location: Unspecified
(0.0000°N, 0.0000°E)
Time: 05:34:50
(UTC+00:00)
Language:

Meteor 2-12 - Orbit

View from above orbital plane
View from above orbital plane
View from above satellite
View from above satellite

Ground track
Ground track

The orbit data is extracted from the following two-line orbital elements,

1 15516U 85013A   18018.62879673 +.00000016 +00000-0 +95360-6 0  9997
2 15516 082.5313 262.7375 0014506 281.5534 078.3998 13.85616777666427
Epoch (UTC): 18 January 2018 15:05:28
Eccentricity: 0.0014506
inclination: 82.5313°
perigee height: 933 km
apogee height: 954 km
right ascension of ascending node: 262.7375°
argument of perigee: 281.5534°
revolutions per day: 13.85616777
mean anomaly at epoch: 78.3998°
orbit number at epoch: 66642

The dashed part of the orbit path shows where the satellite is in the earth's shadow,  

DLR